Weather History for Paynesville, MN

Change the Weather History Date:

Saturday, June 29, 2013

  Actual Average (KLJF) Record (KLJF)
Temperature  
Mean Temperature 68 °F -  
Max Temperature 77 °F 82 °F 114 °F (1997)
Min Temperature 58 °F 59 °F 46 °F (1959)
Cooling Degree Days 2    
Growing Degree Days 18 (Base 50)    
Moisture  
Dew Point 55 °F    
Average Humidity 66    
Maximum Humidity 93    
Minimum Humidity 34    
Precipitation  
Precipitation 0.00 in - - ()
Sea Level Pressure  
Sea Level Pressure 29.92 in    
Wind  
Wind Speed 8 mph (North)    
Max Wind Speed 17 mph    
Max Gust Speed 24 mph    
Visibility 10 miles    
Events Rain , Thunderstorm    
Averages and records for this station are not official NWS values.
T = Trace of Precipitation, MM = Missing Value Source: NWS Daily Summary

Daily Weather History Graph

Daily Weather History Graph

Search for Another Location

Airport:

Trip Planner

Search our weather history database for the weather conditions in past years. The results will help you decide how hot, cold, wet, or windy it might be!

Date:

Astronomy

Jun. 29, 2013 Rise Set
Actual Time 5:33 AM CDT 9:11 PM CDT
Civil Twilight 4:56 AM CDT 9:48 PM CDT
Nautical Twilight 4:05 AM CDT 10:38 PM CDT
Astronomical Twilight 2:58 AM CDT 11:45 PM CDT
Moon 12:20 AM CDT (6/29) 1:08 PM CDT (6/29)
Length of Visible Light 16h 52m
Length of Day
15h 37m
Waning Gibbous, 55% of the Moon is Illuminated
Jun 29
Waning Gibbous
Jun 29
Last Quarter
Jul 8
New
Jul 15
First Quarter
Jul 22
Full

Hourly Weather History & Observations

Time (CDT) Temp. Dew Point Humidity Pressure Visibility Wind Dir Wind Speed Gust Speed Precip Events Conditions
12:13 AM 65.5 °F 59.4 °F 81% 29.85 in 10.0 mi NNW 4.6 mph - N/A   Scattered Clouds
12:33 AM 65.5 °F 59.4 °F 81% 29.84 in 10.0 mi NW 4.6 mph - N/A   Clear
12:53 AM 64.9 °F 59.2 °F 82% 29.84 in 10.0 mi NNW 6.9 mph - N/A   Clear
1:13 AM 64.6 °F 59.0 °F 82% 29.84 in 10.0 mi NW 5.8 mph - N/A   Clear
1:32 AM 64.4 °F 58.8 °F 82% 29.83 in 10.0 mi NW 5.8 mph - N/A   Clear
1:53 AM 64.0 °F 59.0 °F 84% 29.83 in 10.0 mi NW 6.9 mph - N/A   Clear
2:13 AM 63.9 °F 59.2 °F 85% 29.83 in 10.0 mi NW 5.8 mph - N/A   Clear
2:33 AM 63.7 °F 59.0 °F 85% 29.83 in 10.0 mi NW 9.2 mph - N/A   Clear
2:53 AM 63.5 °F 59.0 °F 85% 29.83 in 10.0 mi NW 8.1 mph - N/A   Clear
3:13 AM 63.0 °F 59.0 °F 87% 29.83 in 10.0 mi NW 5.8 mph - N/A Thunderstorm Clear
3:33 AM 63.0 °F 59.4 °F 88% 29.83 in 10.0 mi NW 8.1 mph - N/A   Scattered Clouds
3:53 AM 63.7 °F 59.4 °F 86% 29.83 in 10.0 mi NNW 10.4 mph 17.3 mph N/A   Overcast
4:13 AM 63.7 °F 59.5 °F 86% 29.84 in 10.0 mi NNW 6.9 mph - N/A   Overcast
4:33 AM 63.1 °F 59.4 °F 87% 29.84 in 10.0 mi NNW 8.1 mph - N/A   Mostly Cloudy
4:53 AM 63.1 °F 59.4 °F 87% 29.84 in 10.0 mi NNW 10.4 mph - N/A   Mostly Cloudy
5:13 AM 63.5 °F 59.4 °F 86% 29.84 in 10.0 mi NNW 9.2 mph - N/A   Overcast
5:33 AM 63.5 °F 59.4 °F 86% 29.85 in 10.0 mi NNW 8.1 mph 16.1 mph N/A   Overcast
5:53 AM 63.1 °F 59.9 °F 89% 29.85 in 10.0 mi NNW 10.4 mph - N/A Rain Light Rain
6:13 AM 62.8 °F 60.3 °F 91% 29.87 in 10.0 mi North 8.1 mph - N/A Rain Light Rain
6:33 AM 62.6 °F 60.6 °F 93% 29.88 in 10.0 mi North 5.8 mph - N/A Rain Light Rain
6:53 AM 62.6 °F 60.1 °F 91% 29.89 in 10.0 mi North 8.1 mph - N/A   Overcast
7:13 AM 62.6 °F 60.3 °F 92% 29.90 in 10.0 mi NNE 10.4 mph - N/A   Overcast
7:33 AM 62.6 °F 60.4 °F 93% 29.90 in 10.0 mi NNE 6.9 mph - N/A   Overcast
7:53 AM 62.8 °F 59.9 °F 90% 29.91 in 10.0 mi North 5.8 mph - N/A   Overcast
8:13 AM 63.1 °F 59.9 °F 89% 29.91 in 10.0 mi North 9.2 mph - N/A   Overcast
8:33 AM 64.0 °F 60.4 °F 88% 29.93 in 10.0 mi North 6.9 mph - N/A   Overcast
8:53 AM 65.1 °F 60.8 °F 86% 29.93 in 10.0 mi North 5.8 mph - N/A   Overcast
9:13 AM 66.4 °F 60.6 °F 82% 29.93 in 10.0 mi North 10.4 mph - N/A   Mostly Cloudy
9:33 AM 68.0 °F 59.9 °F 75% 29.93 in 10.0 mi North 11.5 mph 17.3 mph N/A   Mostly Cloudy
9:53 AM 68.4 °F 59.0 °F 72% 29.93 in 10.0 mi North 10.4 mph 17.3 mph N/A   Scattered Clouds
10:13 AM 69.3 °F 59.7 °F 72% 29.93 in 10.0 mi North 10.4 mph - N/A   Scattered Clouds
10:32 AM 70.5 °F 59.0 °F 67% 29.93 in 10.0 mi North 10.4 mph - N/A   Scattered Clouds
10:53 AM 70.0 °F 57.9 °F 65% 29.94 in 10.0 mi North 10.4 mph 17.3 mph N/A   Scattered Clouds
11:13 AM 71.2 °F 56.8 °F 60% 29.93 in 10.0 mi North 11.5 mph 18.4 mph N/A   Scattered Clouds
11:33 AM 72.3 °F 57.0 °F 59% 29.94 in 10.0 mi North 10.4 mph - N/A   Scattered Clouds
11:53 AM 72.5 °F 57.0 °F 58% 29.94 in 10.0 mi North 10.4 mph 17.3 mph N/A   Scattered Clouds
12:13 PM 73.2 °F 55.4 °F 54% 29.94 in 10.0 mi NNW 11.5 mph - N/A   Mostly Cloudy
12:33 PM 74.1 °F 54.3 °F 50% 29.94 in 10.0 mi North 11.5 mph 19.6 mph N/A   Scattered Clouds
12:53 PM 73.9 °F 52.9 °F 48% 29.94 in 10.0 mi North 12.7 mph 19.6 mph N/A   Scattered Clouds
1:13 PM 73.0 °F 54.5 °F 52% 29.94 in 10.0 mi North 11.5 mph 18.4 mph N/A   Mostly Cloudy
1:33 PM 75.0 °F 53.8 °F 47% 29.94 in 10.0 mi North 9.2 mph 16.1 mph N/A   Scattered Clouds
1:53 PM 76.1 °F 48.7 °F 38% 29.94 in 10.0 mi North 17.3 mph 21.9 mph N/A   Scattered Clouds
2:13 PM 75.7 °F 47.3 °F 36% 29.94 in 10.0 mi North 16.1 mph 21.9 mph N/A   Scattered Clouds
2:33 PM 76.6 °F 48.4 °F 37% 29.94 in 10.0 mi North 16.1 mph 21.9 mph N/A   Scattered Clouds
2:53 PM 76.5 °F 47.8 °F 36% 29.95 in 10.0 mi North 12.7 mph 20.7 mph N/A   Scattered Clouds
3:13 PM 75.6 °F 49.1 °F 39% 29.95 in 10.0 mi North 13.8 mph 20.7 mph N/A   Mostly Cloudy
3:33 PM 76.6 °F 49.3 °F 38% 29.95 in 10.0 mi North 13.8 mph 20.7 mph N/A   Scattered Clouds
3:52 PM 77.0 °F 51.3 °F 40% 29.95 in 10.0 mi NNE 12.7 mph 19.6 mph N/A   Scattered Clouds
4:13 PM 75.6 °F 50.2 °F 41% 29.95 in 10.0 mi North 13.8 mph 20.7 mph N/A   Scattered Clouds
4:33 PM 75.6 °F 47.3 °F 37% 29.95 in 10.0 mi North 8.1 mph 18.4 mph N/A   Clear
4:53 PM 76.5 °F 46.2 °F 34% 29.95 in 10.0 mi North 12.7 mph 21.9 mph N/A   Clear
5:12 PM 76.5 °F 47.1 °F 35% 29.95 in 10.0 mi NNE 17.3 mph 24.2 mph N/A   Clear
5:33 PM 74.7 °F 48.2 °F 39% 29.95 in 10.0 mi North 13.8 mph 18.4 mph N/A   Clear
5:53 PM 75.9 °F 45.7 °F 34% 29.96 in 10.0 mi NNE 13.8 mph 20.7 mph N/A   Clear
6:13 PM 75.2 °F 45.9 °F 35% 29.96 in 10.0 mi NNE 11.5 mph 18.4 mph N/A   Clear
6:33 PM 74.5 °F 46.6 °F 37% 29.97 in 10.0 mi North 9.2 mph 18.4 mph N/A   Clear
6:53 PM 73.6 °F 45.7 °F 37% 29.97 in 10.0 mi NNE 10.4 mph 18.4 mph N/A   Clear
7:13 PM 72.5 °F 47.7 °F 41% 29.98 in 10.0 mi NNE 6.9 mph - N/A   Clear
7:33 PM 71.6 °F 48.4 °F 44% 29.98 in 10.0 mi NNE 8.1 mph - N/A   Scattered Clouds
7:53 PM 70.7 °F 48.0 °F 44% 29.99 in 10.0 mi NE 5.8 mph - N/A   Clear
8:13 PM 69.8 °F 48.4 °F 46% 29.99 in 10.0 mi NNE 5.8 mph - N/A   Scattered Clouds
8:33 PM 68.4 °F 49.1 °F 50% 29.99 in 10.0 mi NNE 4.6 mph - N/A   Clear
8:53 PM 67.1 °F 50.2 °F 55% 29.99 in 10.0 mi NE 3.5 mph - N/A   Clear
9:13 PM 65.1 °F 50.7 °F 60% 29.99 in 10.0 mi NE 3.5 mph - N/A   Clear
9:33 PM 64.4 °F 51.6 °F 63% 29.99 in 10.0 mi ENE 4.6 mph - N/A   Scattered Clouds
9:53 PM 64.0 °F 52.2 °F 65% 30.00 in 10.0 mi NNE 3.5 mph - N/A   Scattered Clouds
10:13 PM 62.6 °F 52.5 °F 70% 30.01 in 10.0 mi Calm Calm - N/A   Scattered Clouds
10:33 PM 61.7 °F 52.9 °F 73% 30.02 in 10.0 mi Calm Calm - N/A   Scattered Clouds
10:53 PM 60.8 °F 53.8 °F 78% 30.02 in 10.0 mi Calm Calm - N/A   Clear
11:13 PM 61.3 °F 53.4 °F 75% 30.02 in 10.0 mi Calm Calm - N/A   Clear
11:32 PM 58.8 °F 54.1 °F 84% 30.03 in 10.0 mi Calm Calm - N/A   Clear
11:53 PM 60.1 °F 53.8 °F 80% 30.04 in 10.0 mi Calm Calm - N/A   Scattered Clouds